Simultaneous Nadir Overpasses (SNOs) Predictions

Prediction of SNOs between GOES-16 and METOP-B Satellite Orbit:

Table of predicted SNOs for the next 14.0 days since TLE Epoch: 3/8/2019
Index Date Time (GOES-16) GOES-16 Lat,Lon METOP-B Lat,Lon Distance(km) Time Diff (sec)
1 03/09/2019 14:40:00 0.03, -75.21 0.47, -77.31 239.40 80
2 03/10/2019 14:16:41 0.02, -75.21 -0.61, -72.31 329.95 80
3 03/12/2019 02:38:22 -0.02, -75.20 -0.39, -76.91 194.29 80
4 03/13/2019 02:15:04 -0.02, -75.21 0.74, -71.92 375.13 80
5 03/14/2019 14:36:36 0.02, -75.23 0.31, -76.48 142.79 80
6 03/15/2019 14:13:17 0.02, -75.23 -0.83, -71.49 426.75 80
7 03/17/2019 02:34:58 -0.02, -75.23 -0.23, -76.08 97.19 80
8 03/18/2019 02:11:39 -0.02, -75.23 0.91, -71.09 472.58 80
9 03/19/2019 14:30:33 0.01, -75.26 0.08, -75.66 44.63 80
10 03/22/2019 02:28:54 -0.01, -75.28 -0.00, -75.25 3.27 80




NCC Satellite Simultaneous Nadir Overpasses (SNOs) Prediction Service
